Tracking 17694 objects as of 30-May-2016
HD Live streaming from Space Station
objects crossing your sky now

UNHA 3 R/B

Track UNHA 3 R/B now!
10-day predictions


NORAD ID: 39027
Int'l Code: 2012-072B
Perigee: 488.2 km
Apogee: 574.5 km
Inclination: 97.3 °
Period: 95.1 minutes
Semi major axis: 6902 km
RCS: 1.274 m2 (large)
Launch date: December 12, 2012
Source: North Korea (NKOR)
Launch site: Yunsong, DPRK (YUN)

Note: This is a ROCKET BODY
Your satellite tracking list
Your tracking list is empty





NASA's NSSDC Master Catalog

Two Line Element Set (TLE):
1 39027U 12072B   16150.54547976  .00001278  00000-0  70713-4 0  9993
2 39027  97.2670 167.0850 0062498 128.8284 231.8550 15.13932197190907
Source of the keplerian elements: AFSPC

N2YO: 585